Weather History for KCQT - February, 2013

Change the Weather History Date:

Tuesday, February 5, 2013

  Actual Average Record
Temperature  
Mean Temperature 57 °F 58 °F  
Max Temperature 60 °F 68 °F 89 °F (2007)
Min Temperature 54 °F 49 °F 33 °F (1899)
Degree Days  
Heating Degree Days 8 7  
Month to date heating degree days 15 35  
Since 1 July heating degree days 578 626  
Cooling Degree Days 0 0  
Month to date cooling degree days 3 0  
Year to date cooling degree days 5 9  
Growing Degree Days 5 (Base 50)    
Moisture  
Dew Point 49 °F    
Average Humidity 83    
Maximum Humidity 93    
Minimum Humidity 72    
Precipitation  
Precipitation 0.00 in 0.13 in 2.30 in (1901)
Month to date precipitation 0.00 0.60  
Year to date precipitation 1.18 3.72  
Since 1 July precipitation 4.40  
Sea Level Pressure  
Sea Level Pressure 30.04 in    
Wind  
Wind Speed 1 mph (WSW)    
Max Wind Speed 7 mph    
Max Gust Speed 12 mph    
Visibility 4 miles    
Events      
T = Trace of Precipitation, MM = Missing Value Source: NWS Daily Summary

Daily Weather History Graph

Daily Weather History Graph

Search for Another Location

Airport or City:

Trip Planner

Search our weather history database for the weather conditions in past years. The results will help you decide how hot, cold, wet, or windy it might be!

Date:

Astronomy

Feb. 05, 2013 Rise Set
Actual Time 6:46 AM PST 5:27 PM PST
Civil Twilight 6:20 AM PST 5:54 PM PST
Nautical Twilight 5:51 AM PST 6:23 PM PST
Astronomical Twilight 5:21 AM PST 6:53 PM PST
Moon 2:28 AM PST (2/5) 12:55 PM PST (2/5)
Length of Visible Light 11h 33m
Length of Day
10h 41m
Waning Crescent, 25% of the Moon is Illuminated
Feb 5
Waning Crescent
Feb 9
New
Feb 17
First Quarter
Feb 25
Full
Mar 4
Last Quarter

Hourly Weather History & Observations

Time (PST) Temp. Dew Point Humidity Pressure Visibility Wind Dir Wind Speed Gust Speed Precip Events Conditions
12:47 AM 54.0 °F 50.0 °F 86% 30.06 in 3.0 mi Calm Calm - N/A   Overcast
1:03 AM 53.6 °F 51.8 °F 94% 30.06 in 2.5 mi ESE 3.5 mph - N/A   Overcast
1:47 AM 54.0 °F 50.0 °F 86% 30.06 in 2.5 mi Calm Calm - N/A   Overcast
2:47 AM 54.0 °F 51.1 °F 90% 30.04 in 3.0 mi Calm Calm - N/A   Overcast
3:47 AM 55.0 °F 50.0 °F 83% 30.03 in 3.0 mi Calm Calm - N/A   Haze
4:47 AM 54.0 °F 50.0 °F 86% 30.02 in 3.0 mi Calm Calm - N/A   Overcast
5:47 AM 54.0 °F 50.0 °F 86% 30.02 in 3.0 mi Calm Calm - N/A   Overcast
6:47 AM 54.0 °F 48.9 °F 83% 30.05 in 3.0 mi Calm Calm - N/A   Haze
7:16 AM 53.6 °F 48.2 °F 82% 30.06 in 2.5 mi Calm Calm - N/A   Haze
7:23 AM 53.6 °F 48.2 °F 82% 30.06 in 2.0 mi Calm Calm - N/A   Haze
7:47 AM 54.0 °F 48.9 °F 83% 30.07 in 2.0 mi Calm Calm - N/A   Haze
8:47 AM 55.0 °F 48.9 °F 80% 30.09 in 2.0 mi Calm Calm - N/A   Haze
9:47 AM 55.9 °F 48.9 °F 77% 30.09 in 2.5 mi Calm Calm - N/A   Haze
10:08 AM 55.4 °F 48.2 °F 77% 30.10 in 2.5 mi Calm Calm - N/A   Haze
10:47 AM 55.9 °F 48.0 °F 75% 30.10 in 2.5 mi Calm Calm - N/A   Haze
11:47 AM 55.9 °F 48.9 °F 77% 30.08 in 2.5 mi Calm Calm - N/A   Haze
12:35 PM 57.2 °F 48.2 °F 72% 30.06 in 3.0 mi Calm Calm - N/A   Haze
12:47 PM 57.0 °F 48.9 °F 74% 30.05 in 3.0 mi Calm Calm - N/A   Haze
1:47 PM 57.9 °F 48.9 °F 72% 30.01 in 3.0 mi Calm Calm - N/A   Haze
2:47 PM 57.9 °F 48.9 °F 72% 29.99 in 4.0 mi Calm Calm - N/A   Haze
4:19 PM 57.2 °F 48.2 °F 72% 30.00 in 7.0 mi Calm Calm - N/A   Scattered Clouds
4:47 PM 55.9 °F 48.9 °F 77% 30.00 in 8.0 mi West 5.8 mph - N/A   Clear
5:47 PM 55.0 °F 48.0 °F 77% 30.01 in 9.0 mi Calm Calm - N/A   Clear
6:21 PM 53.6 °F 48.2 °F 82% 30.01 in 8.0 mi Calm Calm - N/A   Mostly Cloudy
6:47 PM 54.0 °F 48.9 °F 83% 30.01 in 7.0 mi Calm Calm - N/A   Scattered Clouds
6:59 PM 53.6 °F 48.2 °F 82% 30.01 in 7.0 mi Calm Calm - N/A   Mostly Cloudy
7:47 PM 55.0 °F 48.9 °F 80% 30.03 in 6.0 mi Calm Calm - N/A   Haze
8:47 PM 55.0 °F 48.9 °F 80% 30.04 in 6.0 mi West 3.5 mph - N/A   Haze
9:13 PM 55.4 °F 48.2 °F 77% 30.03 in 7.0 mi Calm Calm - N/A   Overcast
9:31 PM 55.4 °F 48.2 °F 77% 30.03 in 7.0 mi Calm Calm - N/A   Overcast
9:47 PM 55.0 °F 48.9 °F 80% 30.04 in 7.0 mi Calm Calm - N/A   Overcast
10:47 PM 54.0 °F 48.9 °F 83% 30.03 in 6.0 mi Calm Calm - N/A   Haze
11:47 PM 54.0 °F 48.9 °F 83% 30.03 in 5.0 mi Calm Calm - N/A   Haze